EW0415 Weather Reports


time (UTC)temp
F
wind
direction
speed
knots
gust
knots
rain 1hr
in
rain 24hr
in
rain mn
in
humidity
%
barometer
mb
20260906095515 55 0 0.0 0.0 0.00 0.07 0.07 72 1026.8
20260906095015 55 0 0.0 0.0 0.00 0.07 0.07 72 1026.8
20260906094538 56 0 0.0 0.0 0.00 0.07 0.07 72 1026.8
20260906094016 56 0 0.0 0.0 0.00 0.07 0.07 72 1026.7
20260906093520 56 0 0.0 0.0 0.00 0.07 0.07 72 1026.7
20260906093038 56 0 0.0 0.0 0.00 0.07 0.07 72 1026.7
20260906092516 57 0 0.0 0.0 0.00 0.07 0.07 71 1026.6
20260906092019 57 0 0.0 0.0 0.00 0.07 0.07 71 1026.7
20260906091536 57 0 0.0 0.0 0.00 0.07 0.07 72 1026.7
20260906091016 57 0 0.0 0.0 0.00 0.07 0.07 72 1026.6
20260906090516 57 0 0.0 0.0 0.00 0.07 0.07 72 1026.5
20260906090036 58 0 0.0 0.0 0.00 0.07 0.07 72 1026.6
20260906085518 58 0 0.0 0.0 0.00 0.07 0.07 72 1026.6
20260906085018 58 0 0.0 0.0 0.00 0.07 0.07 72 1026.7
20260906084545 58 0 0.0 0.0 0.00 0.07 0.07 71 1026.6
20260906084015 58 0 0.0 0.0 0.00 0.07 0.07 71 1026.5
20260906083517 58 0 0.0 0.0 0.00 0.07 0.07 71 1026.4
20260906083036 59 0 0.0 0.0 0.00 0.07 0.07 71 1026.4
20260906082519 59 0 0.0 0.0 0.00 0.07 0.07 71 1026.3
20260906082022 59 0 0.0 0.0 0.00 0.07 0.07 71 1026.4
20260906081533 59 0 0.0 1.7 0.00 0.07 0.07 71 1026.3
20260906081016 59 0 0.0 5.2 0.00 0.07 0.07 71 1026.2
20260906080518 59 0 0.0 5.2 0.00 0.07 0.07 70 1026.2
20260906080035 59 0 0.0 2.6 0.00 0.07 0.07 70 1026.1
20260906075520 60 274 0.0 2.6 0.00 0.07 0.07 70 1026.0
20260906075016 60 0 0.0 2.6 0.00 0.07 0.07 69 1026.1
20260906074533 60 0 0.0 1.7 0.00 0.07 0.07 69 1026.0
20260906074014 61 0 0.0 3.5 0.00 0.07 0.07 69 1025.9
20260906073519 61 275 0.0 3.5 0.00 0.07 0.07 69 1025.7
20260906073039 61 275 0.9 5.2 0.00 0.07 0.07 69 1025.6
20260906072519 61 0 1.7 5.2 0.00 0.07 0.07 68 1025.4
20260906072016 62 277 0.9 5.2 0.00 0.07 0.07 68 1025.3
20260906071541 62 280 0.0 5.2 0.00 0.07 0.07 68 1025.3
20260906071016 62 284 0.0 3.5 0.00 0.07 0.07 69 1025.2
20260906070518 62 284 0.0 3.5 0.00 0.07 0.07 69 1025.2
20260906070035 62 0 0.0 3.5 0.00 0.07 0.07 69 1025.1
20260906065517 62 284 0.9 4.3 0.00 0.07 0.07 69 1025.1
20260906065016 62 284 0.0 5.2 0.00 0.07 0.07 69 1025.1
20260906064533 62 284 1.7 5.2 0.00 0.07 0.07 70 1025.1
20260906064021 62 292 1.7 7.0 0.00 0.07 0.07 69 1025.0
20260906063516 62 292 1.7 7.0 0.00 0.07 0.07 70 1025.0
20260906063035 62 286 1.7 5.2 0.00 0.07 0.07 70 1025.1
20260906062516 62 286 0.9 7.0 0.00 0.07 0.07 70 1025.1
20260906062017 63 287 1.7 7.0 0.00 0.07 0.07 70 1025.0
20260906061536 63 268 1.7 5.2 0.00 0.07 0.07 71 1025.0
20260906061018 63 267 1.7 5.2 0.00 0.07 0.07 71 1024.9
20260906060520 62 284 1.7 7.0 0.00 0.07 0.07 71 1024.8
20260906060037 62 281 1.7 7.0 0.00 0.07 0.07 71 1024.9
20260906055517 62 292 1.7 4.3 0.00 0.07 0.07 71 1024.9
20260906055017 62 301 1.7 7.0 0.00 0.07 0.07 71 1024.9
20260906054534 62 294 1.7 7.0 0.00 0.07 0.07 71 1024.9
20260906054018 62 311 0.9 7.0 0.00 0.07 0.07 72 1024.7
20260906053515 62 284 2.6 7.8 0.00 0.07 0.07 72 1024.7
20260906053033 62 279 1.7 7.8 0.00 0.07 0.07 73 1024.7
20260906052517 61 277 1.7 7.8 0.00 0.07 0.07 74 1024.7
20260906052023 61 289 1.7 4.3 0.00 0.07 0.07 74 1024.5
20260906051534 61 289 1.7 4.3 0.00 0.07 0.07 75 1024.6
20260906051019 61 291 0.9 6.1 0.00 0.07 0.07 75 1024.6
20260906050522 60 0 0.9 6.1 0.00 0.07 0.07 76 1024.5
20260906050035 60 0 0.9 2.6 0.00 0.07 0.07 77 1024.5
20260906045517 60 292 0.9 3.5 0.00 0.07 0.07 77 1024.6
20260906045018 60 292 0.0 4.3 0.00 0.07 0.07 78 1024.4
20260906044533 60 292 0.9 4.3 0.00 0.07 0.07 78 1024.5
20260906044016 59 298 0.9 3.5 0.00 0.07 0.07 79 1024.5
20260906043516 59 0 0.9 3.5 0.00 0.07 0.07 79 1024.5
20260906043033 59 298 0.9 3.5 0.00 0.07 0.07 79 1024.5
20260906042520 59 298 0.9 3.5 0.00 0.07 0.07 80 1024.6
20260906042019 59 0 0.9 3.5 0.00 0.07 0.07 80 1024.6
20260906041531 59 303 0.9 4.3 0.00 0.07 0.07 81 1024.6
20260906041016 59 306 0.9 4.3 0.00 0.07 0.07 81 1024.7
20260906040518 59 306 0.9 4.3 0.00 0.07 0.07 81 1024.6
20260906040039 59 307 0.9 4.3 0.00 0.07 0.07 82 1024.7
20260906035516 59 307 1.7 4.3 0.00 0.07 0.07 82 1024.8
20260906035016 59 308 0.9 3.5 0.00 0.07 0.07 83 1024.7
20260906034542 58 0 0.0 3.5 0.00 0.07 0.07 83 1025.1
20260906034020 58 308 0.9 3.5 0.00 0.07 0.07 83 1024.9
20260906033519 58 307 0.9 4.3 0.00 0.07 0.07 83 1025.0
20260906033032 58 307 0.9 4.3 0.00 0.07 0.07 83 1025.1
20260906032516 58 306 0.9 3.5 0.00 0.07 0.07 84 1025.2
20260906032016 58 306 0.9 4.3 0.00 0.07 0.07 84 1025.2
20260906031531 58 307 1.7 4.3 0.00 0.07 0.07 84 1025.3
20260906031016 58 307 1.7 4.3 0.00 0.07 0.07 84 1025.5
20260906030519 58 291 0.0 5.2 0.00 0.07 0.07 84 1025.5
20260906030036 58 284 0.9 5.2 0.00 0.07 0.07 84 1025.6
20260906025518 58 286 0.9 5.2 0.00 0.07 0.07 84 1025.6
20260906025020 58 286 1.7 5.2 0.00 0.07 0.07 84 1025.7
20260906024534 58 286 0.9 5.2 0.00 0.07 0.07 85 1025.8
20260906024020 58 284 0.0 2.6 0.00 0.07 0.07 85 1025.7
20260906023518 58 0 0.0 2.6 0.01 0.07 0.07 86 1025.9
20260906023033 58 0 0.0 2.6 0.01 0.07 0.07 86 1026.0
20260906022516 58 0 0.9 2.6 0.01 0.07 0.07 86 1025.9
20260906022021 58 0 0.0 2.6 0.01 0.07 0.07 87 1025.9
20260906021537 58 0 0.0 2.6 0.01 0.07 0.07 87 1025.9
20260906021017 58 0 0.0 2.6 0.01 0.07 0.07 87 1026.0
20260906020518 58 0 0.0 2.6 0.01 0.07 0.07 87 1025.9
20260906020044 58 289 0.0 2.6 0.01 0.07 0.07 87 1025.9
20260906015519 58 0 0.0 3.5 0.02 0.07 0.07 87 1026.0
20260906015016 58 286 0.9 3.5 0.02 0.07 0.07 87 1026.1
20260906014549 58 284 0.9 3.5 0.01 0.06 0.06 87 1026.1
20260906014023 58 0 0.9 2.6 0.01 0.06 0.06 88 1026.1
20260906013519 58 0 0.0 1.7 0.00 0.05 0.05 88 1026.1
20260906013033 58 0 0.0 1.7 0.00 0.05 0.05 88 1026.0
20260906012517 57 0 0.0 2.6 0.00 0.05 0.05 88 1026.3
20260906012017 57 0 0.0 2.6 0.00 0.05 0.05 88 1026.3
20260906011538 57 0 0.0 1.7 0.00 0.05 0.05 88 1026.3
20260906011015 57 283 0.0 2.6 0.00 0.05 0.05 88 1026.4
20260906010518 57 283 0.0 3.5 0.00 0.05 0.05 88 1026.3
20260906010035 58 283 0.9 3.5 0.00 0.04 0.04 88 1026.3
20260906005519 58 284 0.0 2.6 0.00 0.04 0.04 89 1026.3
20260906005023 58 0 0.0 3.5 0.00 0.04 0.04 89 1026.2
20260906004538 57 0 0.0 3.5 0.00 0.04 0.04 89 1026.2
20260906004022 57 286 0.0 3.5 0.00 0.04 0.04 89 1026.1
20260906003519 57 0 0.0 3.5 0.00 0.04 0.04 89 1026.2
20260906003048 57 284 0.9 3.5 0.00 0.04 0.04 89 1026.2
20260906002516 57 0 0.0 0.0 0.00 0.05 0.04 90 1026.1
20260906002018 56 0 0.0 0.0 0.00 0.05 0.04 90 1026.1
20260906001535 56 0 0.0 0.0 0.00 0.05 0.04 89 1026.1
20260906001018 56 0 0.0 0.0 0.00 0.05 0.04 89 1026.1
20260906000520 56 0 0.0 0.0 0.00 0.05 0.04 89 1026.2
20260906000036 56 0 0.0 1.7 0.00 0.05 0.04 89 1026.2
20260905235520 55 0 0.0 1.7 0.00 0.05 0.04 89 1026.1
20260905235019 55 281 0.0 1.7 0.00 0.05 0.04 89 1026.1
20260905234534 55 0 0.0 1.7 0.00 0.05 0.04 89 1026.1
20260905234023 55 0 0.0 0.9 0.00 0.05 0.04 89 1025.9
20260905233519 55 0 0.0 1.7 0.01 0.05 0.04 89 1025.8
20260905233035 55 0 0.0 1.7 0.01 0.05 0.04 89 1025.7
20260905232515 55 0 0.0 0.9 0.01 0.10 0.04 89 1025.6
20260905232022 55 0 0.0 0.9 0.01 0.10 0.04 89 1025.6
20260905231539 55 0 0.0 1.7 0.01 0.10 0.04 89 1025.6
20260905231018 55 0 0.0 1.7 0.02 0.10 0.04 89 1025.5
20260905230518 54 0 0.0 0.0 0.02 0.10 0.04 89 1025.5
20260905230035 54 0 0.0 0.0 0.02 0.10 0.04 89 1025.3
20260905225517 54 0 0.0 0.9 0.02 0.10 0.04 88 1025.3
20260905225016 54 0 0.0 0.9 0.01 0.09 0.03 88 1025.2
20260905224534 54 0 0.0 0.9 0.01 0.09 0.03 88 1025.2
20260905224015 54 0 0.0 1.7 0.01 0.09 0.03 88 1025.1
20260905223518 54 0 0.0 1.7 0.00 0.08 0.03 88 1025.2
20260905223032 54 0 0.0 2.6 0.00 0.08 0.03 88 1025.1
20260905222519 54 291 0.9 2.6 0.00 0.08 0.03 88 1025.0
20260905222015 53 291 0.0 1.7 0.00 0.08 0.03 88 1025.0
20260905221537 53 0 0.0 0.9 0.00 0.07 0.02 88 1024.9
20260905221018 53 0 0.0 0.9 0.00 0.07 0.02 88 1024.8
20260905220520 53 0 0.0 0.9 0.00 0.07 0.02 88 1024.7
20260905220041 52 0 0.0 0.9 0.00 0.07 0.02 88 1024.7
20260905215519 52 0 0.0 0.0 0.00 0.07 0.02 88 1024.6
20260905215036 52 0 0.0 0.0 0.00 0.07 0.02 88 1024.5
20260905214535 52 0 0.0 0.9 0.00 0.07 0.02 87 1024.5
20260905214016 52 0 0.0 0.9 0.00 0.07 0.02 87 1024.5
20260905213520 52 0 0.0 0.9 0.00 0.07 0.02 87 1024.4
20260905213040 52 0 0.0 0.0 0.00 0.07 0.02 87 1024.3
20260905212524 52 0 0.0 0.0 0.00 0.07 0.02 87 1024.2
20260905212017 52 0 0.0 0.0 0.00 0.07 0.02 87 1024.1
20260905211539 52 0 0.0 0.0 0.00 0.07 0.02 87 1023.9
20260905211023 52 0 0.0 0.0 0.00 0.07 0.02 87 1023.7
20260905210522 52 0 0.0 0.0 0.00 0.07 0.02 87 1023.7
20260905210031 52 0 0.0 0.9 0.00 0.07 0.02 87 1023.7
20260905205522 52 0 0.0 0.9 0.00 0.07 0.02 87 1023.6
20260905205018 52 0 0.0 0.9 0.00 0.07 0.02 87 1023.6
20260905204533 51 0 0.0 0.9 0.00 0.07 0.02 87 1023.4
20260905204015 51 0 0.0 0.9 0.00 0.07 0.01 87 1023.5
20260905203520 51 0 0.0 0.9 0.00 0.07 0.01 87 1023.6
20260905203034 51 0 0.0 0.0 0.00 0.07 0.01 86 1023.5
20260905202518 51 0 0.0 0.0 0.00 0.07 0.01 86 1023.5
20260905202016 51 0 0.0 0.0 0.00 0.07 0.01 86 1023.3
20260905201538 51 0 0.0 2.6 0.00 0.07 0.01 86 1023.2
20260905201022 51 0 0.0 2.6 0.00 0.07 0.01 86 1023.3
20260905200519 50 0 0.0 0.0 0.00 0.07 0.01 86 1023.2
20260905200050 50 0 0.0 0.0 0.00 0.07 0.01 86 1023.2
20260905195520 50 0 0.0 0.0 0.00 0.07 0.01 86 1023.0
20260905195023 51 0 0.0 0.0 0.00 0.07 0.01 86 1022.8
20260905194541 51 0 0.0 0.0 0.00 0.07 0.01 86 1022.8
20260905194020 51 0 0.0 0.0 0.00 0.07 0.01 86 1022.9
20260905193517 51 0 0.0 0.0 0.00 0.07 0.01 86 1023.0
20260905193033 51 0 0.0 0.0 0.00 0.07 0.01 85 1022.9
20260905192518 51 0 0.0 0.0 0.00 0.07 0.01 85 1022.9
20260905192015 51 0 0.0 0.0 0.00 0.07 0.01 86 1022.9
20260905191534 51 0 0.0 0.0 0.00 0.07 0.01 86 1022.8
20260905191016 52 0 0.0 0.0 0.00 0.07 0.01 85 1022.8
20260905190518 52 0 0.0 0.0 0.00 0.07 0.01 85 1022.7
20260905190036 52 0 0.0 0.0 0.00 0.07 0.01 86 1022.7
20260905185515 52 0 0.0 0.0 0.00 0.07 0.01 86 1022.7
20260905185019 52 0 0.0 0.0 0.00 0.07 0.01 86 1022.7
20260905184535 52 0 0.0 0.0 0.00 0.07 0.01 86 1022.7
20260905184016 52 0 0.0 0.0 0.00 0.07 0.01 85 1022.6
20260905183519 52 0 0.0 0.0 0.00 0.07 0.01 85 1022.5
20260905183034 53 0 0.0 0.0 0.00 0.07 0.01 85 1022.3
20260905182518 53 0 0.0 0.0 0.00 0.07 0.01 86 1022.1
20260905182016 53 0 0.0 0.9 0.00 0.07 0.01 86 1022.3
20260905181538 53 0 0.0 0.9 0.00 0.07 0.01 86 1022.2
20260905181015 53 281 0.0 0.0 0.00 0.07 0.01 86 1022.1
20260905180518 53 0 0.0 0.0 0.00 0.07 0.01 86 1022.0
20260905180034 53 0 0.0 0.0 0.00 0.07 0.01 85 1022.0
20260905175523 53 0 0.0 0.0 0.00 0.07 0.01 85 1022.1
20260905175020 53 0 0.0 0.0 0.00 0.07 0.01 85 1022.1
20260905174535 53 0 0.0 2.6 0.00 0.07 0.01 85 1022.1
20260905174019 53 0 0.0 2.6 0.00 0.07 0.01 85 1022.2
20260905173520 53 0 0.0 2.6 0.00 0.07 0.01 85 1022.1
20260905173033 53 0 0.0 2.6 0.00 0.07 0.01 85 1022.3
20260905172516 53 281 0.0 1.7 0.00 0.07 0.01 85 1022.2
20260905172017 53 0 0.0 0.0 0.00 0.07 0.01 85 1022.1
20260905171533 53 0 0.0 1.7 0.00 0.07 0.01 85 1022.3
20260905171015 53 0 0.0 7.0 0.00 0.07 0.01 85 1022.3
20260905170518 53 284 0.0 7.0 0.00 0.07 0.01 85 1022.5
20260905170031 54 284 1.7 7.0 0.00 0.07 0.01 85 1022.6
20260905165520 54 244 1.7 6.1 0.00 0.07 0.01 85 1022.8
20260905165020 53 257 0.0 2.6 0.00 0.07 0.01 84 1022.5
20260905164535 54 0 0.0 0.9 0.00 0.07 0.01 84 1022.7
20260905164018 54 0 0.0 0.9 0.00 0.07 0.01 84 1022.6
20260905163521 54 0 0.0 0.0 0.01 0.07 0.01 84 1022.6
20260905163033 54 0 0.0 0.9 0.01 0.07 0.01 84 1022.6
20260905162521 54 0 0.0 0.9 0.01 0.07 0.01 84 1022.7
20260905162017 54 0 0.0 0.0 0.01 0.07 0.01 84 1022.6
20260905161535 54 0 0.0 0.0 0.01 0.07 0.01 84 1022.5
20260905161017 54 0 0.0 0.9 0.01 0.07 0.01 84 1022.7
20260905160521 55 0 0.0 1.7 0.01 0.07 0.01 84 1022.6
20260905160044 55 0 0.0 2.6 0.01 0.07 0.01 84 1022.6
20260905155519 55 0 0.0 3.5 0.01 0.07 0.01 84 1022.7
20260905155016 55 0 0.0 7.0 0.01 0.07 0.01 84 1022.7
20260905154533 55 265 1.7 7.8 0.00 0.06 0.00 84 1022.9
20260905154019 55 273 2.6 7.8 0.00 0.05 0.00 84 1022.9
20260905153516 55 275 1.7 5.2 0.00 0.05 0.00 84 1023.0
20260905153038 55 0 0.0 2.6 0.00 0.05 0.00 83 1023.0
20260905152518 55 277 0.9 5.2 0.00 0.05 0.00 83 1023.0
20260905152016 55 0 0.9 5.2 0.00 0.05 0.00 83 1022.9
20260905151536 55 276 0.9 3.5 0.00 0.05 0.00 83 1022.9
20260905151020 55 0 0.9 3.5 0.00 0.05 0.00 83 1022.7
20260905150516 55 278 0.0 5.2 0.00 0.05 0.00 83 1022.7
20260905150036 55 0 0.0 5.2 0.00 0.05 0.00 83 1022.8
20260905145521 55 0 0.0 2.6 0.00 0.05 0.00 83 1022.6
20260905145019 55 0 0.0 2.6 0.00 0.05 0.00 83 1022.7
20260905144541 55 0 0.0 1.7 0.00 0.05 0.00 83 1022.6
20260905144016 55 0 0.0 2.6 0.00 0.05 0.00 83 1022.6
20260905143516 55 285 0.0 3.5 0.00 0.05 0.00 83 1022.7
20260905143047 55 284 0.9 6.1 0.00 0.05 0.00 82 1022.7
20260905142517 56 286 0.9 7.0 0.00 0.05 0.05 82 1022.6
20260905142015 56 291 1.7 7.0 0.00 0.05 0.05 82 1022.8
20260905141536 56 302 0.9 7.0 0.00 0.05 0.05 82 1022.8
20260905141021 56 304 1.7 7.0 0.00 0.05 0.05 82 1022.7
20260905140519 56 296 0.9 3.5 0.00 0.05 0.05 82 1022.7
20260905140035 56 296 1.7 3.5 0.00 0.05 0.05 82 1022.6
20260905135516 56 297 0.9 4.3 0.00 0.05 0.05 82 1022.6
20260905135019 56 298 0.0 5.2 0.00 0.05 0.05 81 1022.7
20260905134534 56 298 0.9 6.1 0.00 0.05 0.05 81 1022.8
20260905134016 55 298 1.7 6.1 0.00 0.05 0.05 81 1022.8
20260905133517 55 271 0.9 3.5 0.00 0.05 0.05 81 1022.6
20260905133033 55 271 0.9 3.5 0.00 0.05 0.05 81 1022.5
20260905132519 56 271 0.0 3.5 0.00 0.05 0.05 81 1022.6
20260905132022 56 271 0.9 7.8 0.00 0.05 0.05 80 1022.6
20260905131546 56 272 0.9 7.8 0.00 0.05 0.05 80 1022.4
20260905131021 56 277 1.7 5.2 0.00 0.05 0.05 80 1022.5
20260905130519 56 0 0.9 3.5 0.00 0.05 0.05 80 1022.4
20260905130034 56 0 0.9 7.0 0.00 0.05 0.05 80 1022.4
20260905125522 56 273 1.7 7.0 0.00 0.05 0.05 80 1022.4
20260905125016 56 280 1.7 7.0 0.00 0.05 0.05 79 1022.3
20260905124537 56 281 0.9 7.0 0.00 0.05 0.05 79 1022.3
20260905124021 56 277 0.9 2.6 0.00 0.05 0.05 79 1022.2
20260905123516 56 0 0.0 3.5 0.00 0.05 0.05 79 1022.3
20260905123032 56 277 0.9 5.2 0.00 0.05 0.05 79 1022.1
20260905122519 56 275 0.9 5.2 0.00 0.05 0.05 78 1022.0
20260905122019 56 275 1.7 6.1 0.00 0.05 0.05 78 1022.0
20260905121531 56 275 0.9 6.1 0.00 0.05 0.05 78 1021.9
20260905121023 56 0 1.7 6.1 0.00 0.05 0.05 78 1021.8
20260905120520 56 271 1.7 6.1 0.00 0.05 0.05 77 1021.9
20260905120034 56 267 0.9 7.0 0.00 0.05 0.05 77 1021.8
20260905115517 56 265 0.9 7.0 0.00 0.05 0.05 77 1021.8
20260905115018 56 284 0.9 6.1 0.00 0.05 0.05 77 1021.8
20260905114542 56 0 1.7 7.0 0.00 0.05 0.05 77 1021.6
20260905114020 56 281 1.7 7.0 0.00 0.05 0.05 77 1021.6
20260905113518 56 292 2.6 7.0 0.00 0.05 0.05 77 1021.6
20260905113038 56 259 0.9 7.0 0.00 0.05 0.05 76 1021.6
20260905112516 56 269 0.0 6.1 0.00 0.05 0.05 76 1021.6
20260905112018 56 269 1.7 6.1 0.00 0.05 0.05 76 1021.5
20260905111533 56 0 0.9 2.6 0.00 0.05 0.05 75 1021.4
20260905111015 56 0 0.0 2.6 0.00 0.05 0.05 75 1021.4
20260905110518 56 238 0.0 2.6 0.00 0.05 0.05 75 1021.4
20260905110035 56 238 0.0 6.1 0.00 0.05 0.05 74 1021.3
20260905105517 56 236 0.9 7.0 0.00 0.05 0.05 74 1021.3
20260905105019 56 0 0.9 7.0 0.00 0.05 0.05 74 1021.2
20260905104532 57 262 0.9 3.5 0.00 0.05 0.05 73 1021.2
20260905104018 57 0 0.0 6.1 0.00 0.05 0.05 73 1021.1
20260905103516 57 0 1.7 7.8 0.00 0.05 0.05 73 1021.1
20260905103033 57 260 0.9 7.8 0.00 0.05 0.05 73 1021.0
20260905102515 57 261 2.6 7.8 0.00 0.05 0.05 73 1020.9
20260905102021 57 219 1.7 7.8 0.00 0.05 0.05 73 1020.7
20260905101542 57 257 0.9 6.1 0.00 0.05 0.05 72 1020.8
20260905101016 57 283 0.9 7.0 0.00 0.05 0.05 72 1020.6
20260905100517 57 277 1.7 7.0 0.00 0.05 0.05 72 1020.5
20260905100034 57 250 1.7 7.0 0.00 0.05 0.05 72 1020.5